カタログに戻る

YAOGAN-30 M

運用中軍事VLEO
NORAD 43172·PAYLOAD·🇨🇳 China

打ち上げ Jan 25, 2018 から Xichang Satellite Launch Center

Loading…

次のパス (今後24時間)

TLE

最新Source: Space-Track

元期: Sep 14, 2026, 13:50 UTC

1 43172U 18011D   26257.57706211  .00001978  00000-0  14594-3 0  9990
2 43172  34.9978 326.0057 0001490 174.8844 185.1879 15.03068478471544

AllMySatでYAOGAN-30 Mをリアルタイム追跡

Download on the App Store